Terminal Aerodrome Forecast
Issued by NWS

Home | Current Version | Previous Version | Text Only | Print | Product List | Glossary Off
Versions: 1 2 3 4 5 6 7 8 9 10 11 12 13 14 15 16 17 18 19 20 21 22 23 24 25 26 27 28 29 30 31 32 33 34 35 36 37 38 39 40 41 42 43 44 45 46 47 48 49 50

379
FTUS43 KLOT 241305 AAA
TAFGYY
TAF AMD
KGYY 241305Z 2413/2512 VRB06KT 4SM BR VCSH SCT007 BKN025
      TEMPO 2413/2415 2SM BR BKN007
     FM241500 18011KT P6SM OVC007
     FM241700 21012G19KT P6SM VCSH SCT020 BKN060
     FM242100 26013G20KT P6SM BKN035
     FM250400 28015G22KT P6SM OVC020
      TEMPO 2507/2509 3SM -RASN
     FM250900 29015G22KT 2SM -SN OVC015=

USA.gov is the U.S. government's official web portal to all federal, state and local government web resources and services.